Regional Weather Roundup
Issued by NWS

Home | Current Version | Previous Version | Graphics & Text | Print | Product List | Glossary On
Versions: 1 2 3 4 5 6 7 8 9 10 11 12 13 14 15 16 17 18 19 20 21 22 23 24 25 26 27 28 29 30 31 32 33 34 35 36 37 38 39 40 41 42 43 44 45 46 47 48 49 50
000
ASUS43 KLSX 251657
RWRMO

WEATHER SUMMARY FOR MISSOURI
NATIONAL WEATHER SERVICE SPRINGFIELD MO
1200 PM CDT MON JUL 25 2016

NOTE: "FAIR" INDICATES FEW OR NO CLOUDS BELOW 12,000 FEET WITH NO
       SIGNIFICANT WEATHER AND/OR OBSTRUCTIONS TO VISIBILITY.
       CURRENT SKY AND/OR WEATHER CONDITIONS ARE NOT AVAILABLE FOR
       CHILLICOTHE AND FARMINGTON.

MOZ001>031-035>038-043-044-053-054-251800-
...NORTHERN AND WESTERN MISSOURI...

CITY           SKY/WX    TMP DP  RH WIND       PRES   REMARKS
KANSAS CTY INT CLOUDY    78  69  73 CALM      30.10F
LEE`S SUMMIT   CLOUDY    75  70  84 NW3       30.11F
ST JOSEPH      CLOUDY    80  66  62 VRB3      30.10F

$$
MOZ066>068-077>081-088>096-101>105-251800-
...SOUTHWEST MISSOURI...

CITY           SKY/WX    TMP DP  RH WIND       PRES   REMARKS
SPRINGFIELD    CLOUDY    74  70  87 SW7       30.10S
JOPLIN         LGT RAIN  75  73  93 E10       30.09F
BRANSON        CLOUDY    75  72  88 W5        30.12R

$$
MOZ032>034-039>042-045>050-055>058-069>072-251800-
...CENTRAL MISSOURI...

CITY           SKY/WX    TMP DP  RH WIND       PRES   REMARKS
COLUMBIA       PTSUNNY   78  73  84 W6        30.08S
JEFFERSON CITY PTSUNNY   78  72  81 VRB3      30.07R
ROLLA          CLOUDY    78  71  79 W7        30.07R
SEDALIA        CLOUDY    78  72  81 W6        30.10S

$$
MOZ051-052-059>065-251800-
...EAST CENTRAL MISSOURI...

CITY           SKY/WX    TMP DP  RH WIND       PRES   REMARKS
ST LOUIS INTL  NOT AVBL
ST CHARLES     MOSUNNY   82  75  78 W9        30.03F

$$
MOZ072>076-082>087-097>100-106>115-251800-
...SOUTH CENTRAL AND SOUTHEAST MISSOURI...

CITY           SKY/WX    TMP DP  RH WIND       PRES   REMARKS
CAPE GIRARDEAU MOSUNNY   88  76  67 SW8       30.01F HX  99
POPLAR BLUFF   MOSUNNY   89  78  70 S8        30.00F HX 103
WEST PLAINS    PTSUNNY   80  71  74 CALM      30.09F

$$


USA.gov is the U.S. government's official web portal to all federal, state and local government web resources and services.